Find Starlink 37334

NORAD ID: 68700 Int'l Des: 2026-081 Owner: SPXS Country: US Constellation: starlink operational
LEOCIRCULAR

当前视图

正在加载3D地球...

关于 Starlink 37334

正在加载描述...

即将过境

Passes for default location (London). Set your location on the main map for personalized predictions.

高度历史

Loading altitude history...

两行轨道根数

1 68700U 26081B 26150.81240164 .00031918 00000-0 95216-3 0 9996
2 68700 53.1601 12.8255 0001062 111.9983 248.1133 15.34387242 7315
Epoch: May 30, 2026 • Age: 11 hours

当前状态

高度 471.0 km
速度 7.63 km/s
星下点 -26.16°S, 6.05°E
发射日期 Apr 14, 2026
运行时间 0.1 years
类型 internet

技术详情

分类 Payload
质量 575.00 kg
干质量 530.00 kg
总质量 575.00 kg
长度 0.30 m
直径 4.10 m
跨度 29.00 m
形状 Box + pan
制造商 SPXS
平台类型 Starlink V2MO
阶段状态 In Orbit
所有者/国家 SPXS/US

Most Searched